Content
SEND FEEDBACK

Daily
Averages
Monthly
Summary
United States of America

CAPUTA, SOUTH DAKOTA


Home > North America > United States > South Dakota
Elevation: 3149 feet     Latitude: 44 03N     Longitude: 103 04W

WEATHER
 
SELECT A DAY
Number of Records: 200,400;   Date Range: 1/1/95 - 8/28/14
 
SHARE

PRINT THIS DATA

[ ← Previous Day ]
WEATHER ALMANAC - SEPTEMBER 15, 2013
[ Next Day → ]
[ °C ]   °F
Weather ElementAverageHighLow
Temperature58 °F70 °F (4:52 pm)51.1 °F (9:52 pm)
Dewpoint53.2 °F55.9 °F (1:52 am)46.9 °F (4:52 pm)
Humidity85.4 %97 % (6:52 am)44 % (4:52 pm)
Barometer30.21 in30.30 in (11:21 am)30.03 in (12:52 am)
Wind Speed8.6 mph16.1 mph (1:08 am)
Wind Gust21.9 mph (1:36 am)
Weather ElementAverage
Visibility9.1 mi
Wind DirectionSSE (141.6 °)

Weather ElementTotal
Precipitation0.01 in
Heating Degree Days4.5 (Base 65)
Growing Degree Days10.6 (Base 50)
Averaged from 51 records on September 15, 2013
WEATHER CONDITIONS BREAKOUT
WIND DIRECTION BREAKOUT
WEATHER BY HOUR - SEPTEMBER 15, 2013
[ °C ]   °F
Local TimeTemperatureDewpointHumidityBarometerVisibilityWind DirectionWind SpeedGust SpeedPrecipitationEventsConditions
12:52 AM57.9 °F55.0 °F90 %30.03 in10.0 miNorth (10°)15.0 mphPartly Cloudy
1:08 AM59.0 °F55.4 °F88 %30.09 in10.0 miNorth (10°)16.1 mphMostly Cloudy
1:20 AM59.0 °F55.4 °F88 %30.10 in10.0 miNorth (10°)15.0 mphOvercast
1:36 AM57.2 °F55.4 °F94 %30.10 in5.0 miNorth (10°)16.1 mph21.9 mphOvercast
1:52 AM57.9 °F55.9 °F93 %30.05 in4.0 miNorth (360°)12.7 mphOvercast
2:38 AM57.2 °F55.4 °F94 %30.13 in10.0 miNNE (20°)11.5 mphOvercast
2:52 AM57.9 °F55.0 °F90 %30.07 in10.0 miNorth (360°)5.8 mphOvercast
3:01 AM57.2 °F55.4 °F94 %30.13 in10.0 miNorth (360°)5.8 mphOvercast
3:26 AM57.2 °F55.4 °F94 %30.14 in4.0 miNorth (10°)8.1 mph0.00 inRainLight Rain
3:41 AM57.2 °F55.4 °F94 %30.15 in3.0 miNorth (10°)8.1 mph0.00 inRainLight Rain
3:52 AM57.0 °F55.0 °F93 %30.10 in3.0 miNorth (10°)9.2 mph0.01 inRainLight Rain
4:28 AM57.2 °F55.4 °F94 %30.15 in7.0 miNorth (10°)10.4 mph0.00 inOvercast
4:36 AM57.2 °F55.4 °F94 %30.16 in7.0 miNorth (360°)6.9 mph0.00 inOvercast
4:52 AM57.0 °F55.9 °F96 %30.12 in8.0 miNorth (350°)5.8 mph0.00 inOvercast
5:26 AM57.2 °F55.4 °F94 %30.17 in7.0 miNorth (350°)6.9 mphOvercast
5:38 AM57.2 °F55.4 °F94 %30.18 in8.0 miNorth (360°)8.1 mphOvercast
5:52 AM57.9 °F55.9 °F93 %30.14 in9.0 miNorth (360°)8.1 mphOvercast
6:12 AM57.2 °F55.4 °F94 %30.19 in9.0 miNorth (10°)13.8 mph20.7 mphOvercast
6:27 AM57.2 °F55.4 °F94 %30.20 in10.0 miNNE (20°)13.8 mphOvercast
6:52 AM55.9 °F55.0 °F97 %30.18 in8.0 miNNE (20°)15.0 mphOvercast
7:31 AM55.4 °F53.6 °F94 %30.22 in10.0 miNorth (10°)11.5 mphOvercast
7:52 AM55.9 °F54.0 °F93 %30.20 in10.0 miNorth (360°)9.2 mphOvercast
8:19 AM55.4 °F53.6 °F94 %30.24 in10.0 miNorth (360°)8.1 mphOvercast
8:27 AM55.4 °F53.6 °F94 %30.24 in10.0 miNNE (20°)8.1 mphOvercast
8:34 AM55.4 °F53.6 °F94 %30.25 in10.0 miNNE (30°)6.9 mphOvercast
8:52 AM55.9 °F53.1 °F90 %30.23 in10.0 miNNE (20°)8.1 mphOvercast
9:41 AM55.4 °F53.6 °F94 %30.28 in10.0 miNNE (20°)10.4 mphOvercast
9:50 AM55.4 °F51.8 °F88 %30.28 in10.0 miNNE (30°)10.4 mphOvercast
9:52 AM55.9 °F52.0 °F87 %30.26 in10.0 miNNE (30°)10.4 mphOvercast
10:00 AM55.4 °F51.8 °F88 %30.28 in10.0 miNNE (30°)9.2 mphOvercast
10:14 AM55.4 °F51.8 °F88 %30.29 in10.0 miNNE (30°)9.2 mphOvercast
10:37 AM55.4 °F51.8 °F88 %30.29 in10.0 miNNE (20°)11.5 mphOvercast
10:52 AM55.9 °F52.0 °F87 %30.27 in10.0 miNorth (10°)10.4 mphOvercast
11:21 AM57.2 °F53.6 °F88 %30.30 in10.0 miNorth (350°)8.1 mphOvercast
11:29 AM57.2 °F53.6 °F88 %30.30 in10.0 miNorth (360°)8.1 mphOvercast
11:52 AM60.1 °F53.1 °F78 %30.27 in10.0 miNorth (350°)5.8 mphOvercast
12:02 PM60.8 °F53.6 °F77 %30.30 in10.0 miNorth (360°)6.9 mphOvercast
12:15 PM60.8 °F51.8 °F72 %30.29 in10.0 miNorth (360°)5.8 mphOvercast
12:52 PM62.1 °F51.1 °F67 %30.27 in10.0 miNE (50°)4.6 mphOvercast
1:52 PM64.9 °F51.1 °F61 %30.25 in10.0 miCalmOvercast
2:10 PM66.2 °F51.8 °F60 %30.28 in10.0 miCalmOvercast
2:52 PM66.9 °F51.1 °F57 %30.24 in10.0 miWest (270°)5.8 mphMostly Cloudy
3:52 PM69.1 °F50.0 °F51 %30.23 in10.0 miVariable3.5 mphMostly Cloudy
4:52 PM70.0 °F46.9 °F44 %30.21 in10.0 miSSE (150°)11.5 mphMostly Cloudy
5:52 PM64.9 °F51.1 °F61 %30.22 in10.0 miSouth (170°)13.8 mphClear
6:52 PM61.0 °F51.1 °F70 %30.23 in10.0 miSSE (150°)9.2 mphClear
7:52 PM55.9 °F50.0 °F80 %30.26 in10.0 miSSE (150°)5.8 mphClear
8:52 PM54.0 °F50.0 °F86 %30.27 in10.0 miSE (130°)3.5 mphClear
9:52 PM51.1 °F48.0 °F89 %30.28 in10.0 miCalmMostly Cloudy
10:52 PM52.0 °F50.0 °F93 %30.27 in10.0 miSSW (200°)4.6 mphClear
11:52 PM51.1 °F48.9 °F92 %30.25 in10.0 miSouth (190°)8.1 mphClear
Hourly data recorded from KRAP, located miles away from Caputa, South Dakota







STORIES FROM OUR PARTNERS